This is the latest recevied weather packets stored in our database for station/object N3TJJ-2. If no packets are shown the sender has not sent any weather packets the latest 10 day(s).
| Time | Temp. | Humidity | Pressure | Rain* | Wind** | Luminosity | Snow |
|---|---|---|---|---|---|---|---|
| 1777840163 | 15° C | 38% | 1013.9 hPa | 0 mm | - | - | - |
| 1777839794 | 14.44° C | 41% | 1013.9 hPa | 0 mm | - | - | - |
| 1777839435 | 14.44° C | 37% | 1014 hPa | 0 mm | - | - | - |
| 1777839074 | 15° C | 38% | 1014.1 hPa | 0 mm | - | - | - |
| 1777838718 | 14.44° C | 39% | 1014.2 hPa | 0 mm | - | - | - |
| 1777838361 | 14.44° C | 37% | 1014.2 hPa | 0 mm | - | - | - |
| 1777837993 | 15° C | 37% | 1014.3 hPa | 0 mm | - | - | - |
| 1777837639 | 14.44° C | 39% | 1014.3 hPa | 0 mm | - | - | - |
| 1777837274 | 14.44° C | 41% | 1014.3 hPa | 0 mm | - | - | - |
| 1777836915 | 14.44° C | 36% | 1014.6 hPa | 0 mm | - | - | - |
| 1777836553 | 14.44° C | 40% | 1014.6 hPa | 0 mm | - | - | - |
| 1777836194 | 13.89° C | 38% | 1014.7 hPa | 0 mm | - | - | - |
| 1777835833 | 13.89° C | 41% | 1014.8 hPa | 0 mm | - | - | - |
| 1777835475 | 13.89° C | 40% | 1014.9 hPa | 0 mm | - | - | - |
| 1777835115 | 13.89° C | 41% | 1014.8 hPa | 0 mm | - | - | - |
| 1777834754 | 13.89° C | 40% | 1014.9 hPa | 0 mm | - | - | - |
| 1777834393 | 13.33° C | 43% | 1015 hPa | 0 mm | - | - | - |
| 1777834044 | 13.33° C | 39% | 1015.1 hPa | 0 mm | - | - | - |
| 1777833673 | 13.33° C | 43% | 1015.1 hPa | 0 mm | - | - | - |
| 1777833319 | 13.33° C | 42% | 1015.2 hPa | 0 mm | - | - | - |
| 1777832960 | 12.78° C | 43% | 1015.3 hPa | 0 mm | - | - | - |
| 1777832596 | 12.78° C | 44% | 1015.3 hPa | 0 mm | - | - | - |
| 1777832243 | 12.78° C | 40% | 1015.2 hPa | 0 mm | - | - | - |
| 1777831875 | 13.33° C | 41% | 1015.3 hPa | 0 mm | - | - | - |
| 1777831528 | 12.78° C | 41% | 1015.3 hPa | 0 mm | - | - | - |
* Rain latest hour (hover to see other rain measurements)
** Current wind speed in m/s (hover to see current wind gust speed)